Location: Arlington
(40.6323°N, 74.1651°W)
Time: 15:15:41
(UTC+00:00)

NOSS 2-2 (D) - Pass Details

Date: 22 November 2019
Orbit: 488 x 1720 km, 63.3° (Epoch: 03 December)

Event Time Altitude Azimuth Distance (km) Brightness Sun altitude
Rises 23:37:21 0° 206° (SSW) 2,580 7.2 -23.1°
Reaches altitude 10° 23:39:29 10° 203° (SSW) 1,672 6.1 -23.5°
Enters shadow 23:41:31 31° 193° (SSW) 869 4.4 -23.9°
